Wind_Speed
19 19 19 18 18 18 17 15 15 13 12 12 13 14 14 14 13 12 12 11 10 10 11 12 12 12 10 9 9 9 10 9 9 6 8 11 9 9 11 18 20 23 26 23 22 19 14 10 12 13 11 7 4 5 5 4 3 1 1 1 1 1 2 2 0 2 3 5 8 9 7 7 9 7 5 7 9 10 8 7 8 8 8 11 17 21 24 23
19 19 19 19 18 18 17 16 16 15 13 13 13 14 14 15 15 14 12 11 10 10 11 11 10 9 8 8 9 9 11 10 9 9 11 8 6 13 16 21 23 26 28 26 24 21 15 11 13 13 10 6 4 5 4 3 3 2 1 1 0 1 2 3 3 2 3 5 9 10 8 6 9 9 6 8 11 10 8 8 10 12 12 15 21 24 23 23
19 19 18 18 18 18 18 17 17 16 15 14 14 14 14 15 15 15 13 11 9 9 10 10 9 7 6 8 9 10 10 8 6 6 4 2 10 16 20 25 25 28 29 27 26 21 16 16 17 15 9 5 4 5 4 3 3 3 2 1 1 1 3 4 4 3 2 7 11 9 7 6 8 8 6 9 12 10 9 10 11 12 14 16 20 24 23 23
19 18 18 18 18 18 18 17 17 17 17 16 16 15 15 14 15 14 13 12 9 8 9 10 8 5 6 8 9 9 7 4 2 1 3 1 15 20 24 27 27 29 28 26 23 18 18 18 15 11 7 5 5 5 5 5 2 1 3 3 1 1 4 4 3 1 3 8 10 8 8 6 7 6 5 11 11 8 9 11 13 15 17 19 20 23 24 23
18 18 18 18 18 18 18 18 18 18 18 18 17 16 16 15 15 14 13 12 9 7 8 9 8 4 5 8 8 7 4 2 1 4 5 6 20 24 26 28 28 29 27 23 19 17 19 16 12 7 4 5 6 6 4 7 4 2 5 6 5 5 6 4 2 3 5 8 10 9 9 7 7 5 7 12 8 5 8 10 14 17 19 21 22 23 23 22
18 18 18 18 19 19 18 18 18 18 19 18 18 18 17 16 15 15 13 11 8 7 7 8 8 4 4 7 6 5 2 1 2 6 2 12 23 25 27 27 27 28 26 21 18 17 16 12 10 7 4 4 8 7 3 7 6 4 5 6 8 7 7 5 1 4 7 9 10 9 7 8 8 6 8 10 3 3 9 11 15 17 20 22 23 22 21 20
19 19 19 19 19 19 18 19 19 19 19 19 19 19 18 17 16 16 13 9 7 7 6 7 8 3 3 5 3 2 2 3 3 2 5 16 23 24 25 24 26 27 23 21 18 14 13 11 10 7 6 5 6 7 2 5 7 6 5 5 7 6 8 7 4 5 7 10 9 7 7 9 10 6 8 8 3 7 11 13 15 17 21 22 20 19 19 19
19 19 19 19 19 19 19 20 20 20 20 20 20 20 20 19 18 16 12 9 7 7 6 7 7 3 3 3 2 1 1 2 0 6 11 20 22 23 24 22 24 24 22 20 16 14 13 12 10 7 7 4 4 7 4 3 7 8 7 6 6 6 7 6 5 7 8 8 8 8 8 8 7 4 7 8 6 10 13 14 15 17 19 18 17 18 17 17
19 19 20 20 20 20 20 21 21 21 21 21 22 22 21 20 18 15 11 8 7 7 6 6 6 3 1 2 2 1 1 2 3 12 16 21 23 24 24 21 22 23 21 17 15 15 11 9 9 6 5 4 4 7 5 4 4 5 7 7 8 10 8 5 6 9 9 6 8 10 7 5 4 3 6 7 7 11 14 15 16 17 18 16 16 17 17 16
20 20 20 20 20 21 21 21 21 22 22 23 24 23 22 19 17 14 11 7 7 7 5 5 5 4 2 3 3 3 2 3 6 16 18 21 22 24 23 21 23 23 19 13 14 15 8 8 8 3 3 4 4 4 3 3 1 2 7 8 9 9 8 3 7 10 8 7 9 10 6 5 4 2 5 7 9 12 15 15 16 17 17 16 15 15 15 16
20 20 20 21 21 22 22 22 22 23 24 24 25 23 21 19 16 13 10 7 7 6 6 6 5 4 3 3 3 3 2 2 10 19 19 19 21 23 22 23 24 21 18 12 12 13 7 8 7 1 2 3 3 3 2 2 4 6 6 7 5 2 3 2 8 11 8 6 8 8 7 5 4 3 4 8 11 13 15 16 16 16 15 16 16 15 13 14
21 21 21 22 23 23 23 23 23 23 25 25 25 23 22 19 16 13 9 8 8 7 7 7 6 6 3 2 4 2 3 3 12 19 20 19 20 21 19 22 24 21 20 12 11 13 8 9 8 2 2 1 3 2 2 3 6 6 4 5 2 1 3 3 7 10 7 6 8 8 6 5 8 6 3 9 12 13 15 15 16 15 14 14 14 13 11 13
21 22 22 23 24 24 23 23 23 24 25 25 24 23 21 17 13 10 8 8 9 8 8 8 8 7 3 2 3 5 1 4 10 16 20 19 16 15 14 20 22 20 19 15 14 16 10 7 5 3 1 1 1 1 4 4 6 4 2 2 3 1 2 4 6 9 6 6 11 9 3 3 10 8 4 10 14 14 15 14 14 14 12 13 13 12 11 13
22 23 23 24 24 24 24 23 24 24 24 24 23 21 17 12 8 5 8 10 10 10 10 8 9 7 2 3 1 3 3 2 8 15 18 18 13 11 13 18 18 15 14 12 14 17 12 5 1 2 1 2 1 3 4 3 2 1 1 1 1 2 2 4 5 9 6 5 10 8 3 1 5 9 7 10 16 15 14 14 14 13 12 12 12 12 12 13
23 24 25 25 25 25 24 23 23 23 23 22 20 16 12 8 4 4 8 11 12 12 11 9 8 5 0 4 2 2 4 3 7 13 16 17 13 10 11 15 13 12 10 6 8 15 12 3 1 2 2 1 2 3 2 1 0 1 2 2 0 1 2 4 5 8 6 5 9 8 3 1 1 8 11 11 15 16 14 14 14 14 14 13 12 13 12 13
25 25 25 25 25 25 24 23 22 22 21 19 14 10 8 6 3 6 9 11 12 12 9 7 7 5 1 1 1 2 3 2 4 9 15 17 11 9 13 14 10 9 9 5 4 8 8 3 2 1 1 2 2 1 0 1 1 1 1 1 1 1 1 4 5 8 6 7 10 9 4 2 3 5 11 11 15 15 13 14 15 15 14 14 12 12 12 12
26 26 27 26 25 24 23 21 20 20 19 14 7 8 11 11 12 13 13 12 11 9 6 5 5 4 2 0 2 2 2 2 1 5 16 15 9 14 17 11 8 8 7 5 4 5 7 4 3 1 1 2 0 1 3 4 3 2 1 1 1 1 0 2 4 7 8 7 9 10 6 1 4 5 10 12 15 15 13 14 15 14 13 13 12 12 12 12
27 28 27 26 24 23 22 20 19 19 16 8 4 10 13 14 14 15 15 12 8 5 3 3 3 2 2 2 1 1 3 2 2 4 13 12 10 16 14 7 9 10 8 5 3 4 6 4 3 3 2 2 2 3 4 3 3 3 2 2 2 1 0 0 2 5 9 7 7 9 9 7 3 6 8 11 13 14 13 13 13 14 14 13 13 12 13 13
28 28 27 25 23 22 20 18 18 17 12 3 7 10 11 11 9 9 11 9 3 1 1 2 2 1 1 1 2 5 6 4 1 4 12 14 13 12 9 9 11 10 9 6 4 5 6 4 4 5 5 5 4 4 3 3 4 5 3 2 2 1 0 1 1 3 9 7 6 9 9 9 5 7 8 10 12 13 12 12 12 12 13 13 13 13 13 14
30 28 26 24 22 21 19 17 16 13 9 2 8 6 4 3 2 2 3 3 3 2 1 2 3 2 3 2 3 6 5 2 1 4 12 16 16 12 8 7 9 6 7 7 6 6 5 6 6 6 5 5 4 4 2 3 4 3 3 3 2 1 0 0 2 0 7 7 6 9 9 9 6 7 9 10 11 12 12 13 12 13 13 13 14 14 15 15
30 28 25 23 22 21 18 15 13 9 6 3 6 3 1 1 0 0 1 2 3 2 3 3 2 4 5 4 5 4 2 0 2 5 12 16 15 11 4 4 8 6 4 6 8 5 5 7 6 5 5 3 2 3 3 3 3 2 1 1 0 1 1 2 3 2 5 6 4 6 8 10 9 7 9 10 12 14 14 15 15 16 15 13 15 16 15 13
29 27 25 23 22 20 17 13 9 3 4 6 5 3 2 1 3 2 1 2 2 2 3 3 1 3 6 6 6 2 2 1 3 4 8 12 10 6 4 4 7 6 4 6 7 6 6 6 6 5 5 3 3 3 3 3 3 2 1 1 1 1 1 1 3 3 5 5 1 3 6 9 9 7 9 12 13 13 15 17 15 16 16 14 15 15 15 14
29 26 24 23 21 18 15 9 3 2 4 6 6 4 2 4 4 5 5 1 3 1 1 2 2 2 3 3 3 4 3 1 3 4 6 10 5 3 5 6 5 6 6 7 7 7 6 4 7 6 4 4 3 3 3 3 2 2 2 3 2 0 1 1 3 5 3 4 2 1 4 7 6 6 9 13 14 12 14 16 14 14 16 16 16 15 14 16
28 25 24 23 20 16 11 4 2 3 4 6 6 5 4 6 2 7 4 1 2 2 2 1 1 2 1 1 3 4 2 1 2 4 4 7 5 2 4 4 6 7 5 6 7 7 4 4 6 6 5 6 4 4 4 3 3 2 3 5 3 2 3 2 2 3 3 4 2 1 3 3 3 4 7 10 12 12 12 14 13 13 14 14 15 15 15 16
27 25 23 21 18 13 6 2 4 2 2 5 4 6 7 6 1 5 2 1 1 1 1 1 1 2 0 0 1 1 1 2 2 1 1 2 4 3 3 2 3 5 5 5 7 6 3 4 6 7 6 6 5 5 5 5 4 3 5 7 6 4 5 3 1 2 2 2 1 2 3 0 1 2 5 7 10 12 12 14 16 15 14 14 14 15 16 16
27 24 21 18 16 10 3 3 4 2 2 2 3 7 8 7 3 4 1 1 2 2 1 1 0 1 1 1 0 2 2 3 3 3 5 3 1 2 3 2 0 3 6 6 4 3 2 3 5 7 7 6 6 5 4 5 5 3 4 7 8 7 6 5 2 2 2 1 1 2 3 0 1 1 2 5 10 13 12 14 16 14 14 15 14 15 15 15
26 23 19 15 14 10 4 2 3 1 3 1 5 8 10 7 1 5 2 1 3 1 1 1 1 1 2 1 1 1 2 2 1 6 9 7 3 0 3 3 2 3 4 4 3 2 3 4 4 5 7 6 5 5 5 7 6 2 3 6 9 10 9 6 3 2 1 1 0 1 2 2 1 2 3 2 8 10 10 12 13 12 14 15 15 15 16 16
25 21 16 11 11 10 4 1 1 2 1 4 6 9 11 4 4 3 2 2 3 1 1 1 1 2 1 1 3 1 2 2 1 4 7 8 6 0 2 2 3 5 2 4 5 2 2 3 4 5 6 5 5 4 7 10 6 2 4 5 7 7 7 5 3 2 1 2 1 2 2 2 1 3 6 3 1 3 5 8 11 13 13 15 15 16 17 17
23 19 14 9 8 8 6 2 1 1 3 6 8 11 9 1 4 1 2 2 2 1 0 1 0 1 1 3 7 5 4 4 2 4 6 6 10 4 2 2 2 6 3 1 3 3 2 1 2 4 3 2 2 1 6 12 6 2 5 4 4 4 3 3 2 2 2 2 3 4 5 3 1 5 8 6 6 9 8 7 9 13 14 14 15 16 17 16
20 17 13 9 7 7 6 3 2 2 5 7 9 10 4 2 2 2 1 2 2 0 0 2 1 2 1 4 7 7 7 6 4 5 5 4 8 7 3 0 1 4 3 4 5 3 1 0 1 3 3 3 3 2 3 9 3 4 7 5 4 4 3 2 1 2 2 3 3 3 6 5 0 5 7 7 8 11 9 8 8 8 13 15 15 14 15 14
17 14 12 9 7 6 4 3 3 6 7 8 10 7 1 2 1 0 3 2 1 2 1 2 3 4 6 7 5 5 7 8 7 6 6 4 7 10 5 1 1 2 3 4 5 4 4 3 1 1 3 4 2 1 1 2 1 2 4 4 4 3 3 2 2 2 4 3 1 1 6 6 2 3 6 7 10 12 10 9 11 10 9 12 14 14 14 14
14 13 12 11 8 6 5 5 8 9 9 9 7 3 2 1 2 2 2 1 1 3 2 2 4 4 9 11 8 6 5 6 7 7 7 5 7 9 6 4 2 2 4 2 2 4 5 4 4 2 1 7 4 3 4 3 4 4 4 4 5 3 4 4 3 3 4 2 1 1 5 4 2 4 6 9 11 13 11 10 10 12 12 9 10 14 15 13
11 12 13 13 12 10 9 10 10 9 8 5 1 1 1 2 4 2 3 3 2 2 2 3 3 3 7 10 7 6 7 6 5 5 5 5 6 6 6 8 6 2 2 1 3 3 3 2 6 5 1 7 7 1 3 3 4 5 5 5 5 4 5 6 4 2 3 2 1 2 4 4 5 5 6 9 11 11 10 11 10 10 11 11 10 9 14 14
7 9 12 14 14 16 15 10 8 6 3 1 2 1 3 4 3 2 3 3 1 2 3 2 3 6 9 7 3 2 6 7 6 6 5 4 5 5 5 10 11 4 1 1 2 1 1 4 5 6 2 6 8 4 2 1 2 2 1 2 3 4 4 5 4 4 5 4 3 2 3 2 6 4 5 6 9 11 10 12 12 12 12 11 11 7 8 14
3 6 11 13 16 22 18 9 6 4 1 1 2 4 5 3 1 2 2 3 2 2 4 2 2 7 7 5 3 4 4 4 4 6 8 6 5 5 5 8 11 7 1 0 2 1 1 3 4 5 2 4 6 5 3 2 2 2 1 2 2 1 1 1 2 2 3 4 3 3 2 3 6 6 7 7 8 12 13 15 16 16 15 12 12 12 8 6
3 4 8 14 22 26 19 8 6 4 2 1 5 6 4 2 1 2 2 3 2 3 3 2 5 5 4 2 4 6 6 4 1 3 6 6 5 7 6 4 8 8 4 1 1 0 1 3 4 5 0 1 6 5 3 2 0 2 2 2 1 2 2 1 2 1 1 5 3 2 3 4 4 3 10 11 10 14 16 18 18 17 17 15 13 12 12 11
5 5 6 16 27 26 17 11 6 3 2 3 7 5 1 1 1 2 3 3 2 2 2 2 4 3 2 2 3 5 4 3 3 2 2 2 4 7 7 3 4 7 5 1 1 1 0 3 2 5 2 3 7 3 1 4 3 1 2 2 2 0 1 1 2 3 4 7 3 3 4 5 1 1 9 14 14 16 16 17 17 18 18 17 15 13 13 13
7 5 5 17 27 21 14 12 7 1 1 6 8 5 1 2 4 3 3 3 1 0 2 3 2 2 1 2 2 5 4 1 2 3 2 2 3 4 6 3 5 9 7 3 0 1 2 1 3 2 3 5 7 1 3 4 6 3 2 2 1 2 2 1 2 4 6 7 4 4 5 6 5 3 9 14 14 15 14 15 16 18 19 17 16 17 16 15
7 3 3 17 23 13 13 13 6 2 5 6 5 4 2 3 6 6 4 2 0 1 3 3 2 3 4 2 3 4 5 3 2 2 2 2 2 3 5 3 4 9 8 4 1 1 2 0 2 2 4 4 4 5 2 5 5 2 2 1 1 1 1 1 0 1 3 5 5 4 3 4 5 5 9 11 12 12 12 13 14 16 16 15 15 16 16 15
5 1 2 18 18 9 14 16 8 5 6 4 2 2 2 2 4 8 7 4 2 2 3 3 2 3 5 4 4 4 6 6 4 2 2 3 2 3 5 3 4 7 7 4 3 1 2 1 1 3 4 1 2 5 4 5 5 2 1 3 3 2 1 1 2 2 1 3 4 5 4 4 4 4 7 10 10 10 11 11 11 12 14 14 14 14 15 15
3 1 3 18 16 7 13 13 6 4 3 3 2 2 3 3 3 8 9 6 5 5 4 4 4 4 4 4 4 3 3 5 5 3 3 3 2 2 5 4 3 5 4 2 4 4 2 1 1 2 4 4 4 3 3 6 7 6 4 3 3 2 1 3 3 1 1 1 1 3 5 5 4 4 6 8 9 9 10 10 10 11 13 13 14 15 15 16
2 1 4 17 14 10 12 7 3 3 2 3 3 2 3 3 4 6 7 6 6 5 5 5 6 5 3 4 3 3 3 4 4 4 4 5 5 3 5 4 3 3 2 1 3 3 1 1 3 4 3 3 4 2 2 3 3 5 6 5 3 2 2 2 2 3 2 1 1 2 4 5 4 5 6 7 7 8 9 9 10 10 11 12 14 16 16 16
1 0 6 16 10 6 9 5 2 4 4 2 2 3 4 3 4 6 6 6 5 4 5 5 4 4 4 3 3 3 3 4 4 4 4 5 6 4 6 7 3 2 2 1 1 2 0 1 3 4 3 0 3 3 1 2 1 2 6 7 5 3 3 2 1 1 1 2 1 2 4 5 4 6 6 6 7 8 8 10 10 10 10 11 13 14 16 16
1 2 4 16 11 3 4 3 3 4 4 2 4 4 4 4 6 7 7 7 5 3 4 4 3 4 4 3 4 3 2 2 3 3 2 3 3 3 5 8 6 5 4 2 1 1 1 0 1 3 3 2 4 4 3 1 3 2 4 7 8 8 5 1 1 1 1 2 1 1 4 5 4 5 6 7 8 8 9 10 10 10 10 11 11 12 13 15
2 1 2 12 15 8 3 1 3 5 3 3 6 6 4 4 4 5 6 7 6 3 3 3 3 4 4 4 5 5 4 3 3 1 1 3 2 2 6 8 8 6 6 4 2 0 1 1 0 2 3 4 3 2 2 1 2 2 3 7 8 10 8 2 0 0 2 2 3 1 4 5 5 5 8 9 9 9 10 10 10 10 11 11 11 11 11 13
1 2 1 5 9 7 3 2 2 3 3 3 4 4 4 3 2 4 5 6 6 6 5 3 2 3 4 5 6 7 7 7 5 3 2 2 3 2 4 5 7 8 7 8 5 1 2 3 2 2 2 2 2 3 1 1 1 2 3 7 7 8 9 4 0 1 2 1 1 3 3 2 4 7 8 10 10 10 10 11 11 11 11 12 12 11 12 12
1 2 2 1 2 3 3 4 4 2 1 1 2 2 3 2 2 3 5 4 4 5 4 4 4 3 4 4 5 5 6 7 7 5 3 2 2 1 2 3 6 9 7 7 6 2 3 3 3 4 6 5 4 4 2 1 3 3 4 5 5 6 7 5 3 3 2 0 3 3 3 4 5 7 8 9 9 9 9 11 11 10 11 11 12 13 15 15
1 1 1 1 1 1 2 4 5 4 3 2 1 1 2 3 3 3 3 2 2 3 2 3 6 6 4 2 3 3 3 5 5 3 2 2 2 1 1 3 6 8 6 5 5 2 3 3 2 3 6 5 4 4 4 3 3 2 3 3 4 5 5 4 4 3 1 1 2 3 2 3 5 6 7 8 8 8 8 9 9 9 11 12 13 15 16 16
1 2 0 1 1 1 1 2 4 4 5 4 2 2 2 4 5 3 2 2 3 4 3 3 5 5 4 3 3 3 2 3 4 1 1 2 1 1 1 2 3 6 5 5 4 2 1 3 3 2 5 6 4 4 4 4 4 3 3 3 3 3 3 3 1 1 1 0 2 3 5 5 4 5 6 6 6 6 5 7 9 11 13 13 14 15 16 16
1 1 1 1 2 1 1 2 2 3 4 3 2 2 2 3 4 3 2 3 3 3 3 5 6 4 5 6 7 5 2 2 4 3 2 1 1 1 0 0 1 4 5 3 3 2 0 2 2 2 3 4 2 3 4 5 5 5 5 4 2 1 1 0 0 1 1 1 2 2 5 6 3 4 4 5 5 6 7 9 10 11 13 13 14 14 15 15
2 1 1 1 2 3 2 2 2 1 2 2 2 1 1 2 3 3 3 4 3 2 2 6 7 4 5 8 9 7 3 3 5 4 2 2 1 1 1 0 1 1 3 2 2 2 1 2 2 1 2 3 1 2 4 5 4 3 2 3 3 2 3 1 0 1 0 1 1 1 3 3 2 3 3 4 5 7 8 9 9 9 11 13 13 13 14 15
2 1 2 1 2 2 2 1 1 1 1 2 1 1 1 2 1 0 3 4 4 4 3 5 5 3 4 6 7 5 3 2 2 2 2 1 1 0 1 1 1 0 2 0 1 2 1 2 2 2 2 3 2 2 4 4 3 2 1 2 2 2 2 0 1 2 1 0 1 1 1 3 2 1 3 4 5 6 7 8 7 8 10 11 12 12 12 13
Wind_Direction
346 345 344 342 341 339 339 341 340 343 351 351 349 348 347 344 342 340 334 332 331 330 332 330 324 324 330 336 335 326 325 313 301 274 239 267 252 209 182 173 168 161 164 165 152 137 133 132 137 151 155 157 174 178 200 223 233 240 205 325 30 47 38 29 254 164 142 153 160 166 174 155 143 138 127 133 129 129 130 114 106 86 86 119 127 136 145 149
346 345 343 341 340 339 338 340 340 342 349 351 348 346 345 341 339 340 336 331 327 324 327 325 319 326 341 348 339 328 327 314 294 263 248 270 218 185 170 168 170 167 166 162 155 145 141 143 143 154 159 157 172 177 199 207 210 233 218 355 5 321 337 320 293 219 180 157 157 168 171 165 150 143 155 152 140 137 129 122 112 100 107 121 130 139 148 153
346 344 342 341 340 339 338 337 338 340 344 348 346 344 342 337 335 337 336 331 324 319 320 320 317 327 353 352 337 330 328 316 285 256 271 262 186 172 164 168 171 171 171 165 161 156 145 144 148 153 157 162 173 174 192 197 205 227 224 268 173 265 308 322 300 240 178 144 152 166 168 169 155 146 166 155 148 152 146 143 134 126 134 139 141 146 153 158
345 342 342 341 340 338 337 336 336 338 339 340 342 342 338 333 331 332 333 329 320 313 312 311 308 320 359 350 336 337 323 296 256 264 0 156 171 162 162 168 170 173 172 165 162 157 138 136 146 150 151 158 167 176 199 204 206 209 214 258 186 305 317 350 344 198 151 152 152 157 163 166 157 153 166 152 153 172 169 161 150 145 149 150 151 153 158 162
343 341 341 340 339 336 335 336 338 337 336 336 338 338 335 331 326 327 327 324 316 306 307 301 295 308 349 344 337 340 315 236 92 358 351 162 162 157 159 165 171 172 168 161 155 146 135 137 143 144 154 151 165 181 212 211 211 243 238 261 264 280 298 329 347 155 141 150 152 159 167 155 152 163 173 165 167 181 170 163 152 150 154 156 157 157 161 165
341 341 339 338 337 334 333 337 338 336 336 336 335 334 332 329 324 323 321 319 308 295 299 288 283 297 329 335 336 335 301 259 357 351 22 158 159 153 157 165 170 167 164 155 144 141 138 144 154 151 162 152 171 180 192 201 203 250 247 257 261 264 270 288 289 167 145 153 162 168 157 140 159 174 177 178 168 132 149 153 151 150 154 156 158 159 162 167
340 339 338 337 335 333 334 336 337 336 337 337 335 332 329 327 321 319 316 311 298 288 289 276 273 279 317 326 329 336 290 294 332 19 141 157 156 151 155 162 163 162 159 149 143 150 144 153 166 153 159 155 181 191 163 185 204 245 262 271 274 267 256 261 246 189 164 165 164 151 146 160 177 169 170 181 125 124 142 145 147 146 150 154 158 163 164 166
338 337 337 335 333 334 335 336 337 337 338 335 334 331 327 324 319 316 311 302 285 276 274 264 262 258 305 311 299 307 240 295 108 144 154 157 152 150 152 154 160 160 158 153 151 155 148 158 163 151 171 160 173 192 183 198 206 230 259 279 286 284 269 257 226 190 168 163 151 144 161 177 175 140 164 176 135 137 143 142 145 144 149 157 161 165 166 167
337 336 335 334 334 335 336 336 337 338 337 334 333 330 326 322 318 312 305 293 268 265 267 249 242 237 258 265 273 223 164 335 154 154 157 159 153 151 151 150 159 160 156 155 153 154 155 163 162 164 190 164 166 185 191 221 200 217 256 282 289 295 298 264 203 180 165 156 154 157 163 162 142 132 171 171 143 142 144 143 147 150 154 160 163 166 168 169
336 336 334 334 335 337 338 336 336 337 336 334 332 329 325 321 314 306 297 279 250 252 249 224 221 218 217 238 244 167 108 356 153 158 163 164 156 156 157 155 160 161 153 148 154 159 166 170 163 182 196 162 171 179 189 225 309 285 271 285 285 301 321 265 186 168 156 152 166 164 153 147 140 192 194 162 152 146 144 148 151 156 161 164 166 168 171 172
337 336 335 335 337 338 338 337 337 337 336 334 332 329 325 318 307 296 284 255 231 235 218 199 198 191 190 245 245 146 47 2 159 162 170 169 162 163 168 165 163 161 152 146 162 165 161 169 171 190 177 160 176 198 225 251 315 303 287 292 276 330 2 208 165 159 150 150 175 157 137 156 163 219 213 157 157 154 149 153 159 163 165 167 169 169 172 174
336 335 336 336 337 337 337 338 337 338 336 334 333 329 321 312 301 286 265 229 215 210 189 182 180 166 156 254 246 187 35 55 159 168 173 175 170 170 172 172 172 168 159 154 170 173 163 167 186 197 134 156 184 219 282 303 304 289 284 300 274 101 89 139 150 160 158 154 169 150 135 195 201 204 181 157 159 158 156 157 163 167 167 169 171 171 174 176
334 335 336 336 336 336 338 338 338 338 336 335 335 327 319 312 300 273 235 209 199 185 172 170 171 157 149 260 235 207 272 71 149 168 173 177 175 169 171 174 178 180 172 167 172 180 171 153 185 191 140 250 170 296 306 297 293 271 250 298 289 282 116 127 149 163 161 151 166 174 180 207 201 194 154 159 164 160 162 163 167 169 169 171 172 175 178 181
336 338 338 337 335 335 338 338 339 338 336 338 335 326 323 318 299 250 202 189 177 167 163 161 161 146 144 268 280 183 202 113 152 167 171 176 165 153 168 173 176 181 179 174 175 182 176 133 154 192 180 293 308 308 298 295 304 290 251 230 302 304 110 123 158 167 161 155 174 200 247 60 182 186 167 164 167 165 168 168 171 171 171 174 174 179 182 186
341 342 340 338 335 334 337 338 339 338 338 340 336 332 336 327 301 204 179 173 163 158 155 151 159 154 319 275 294 134 170 160 174 180 179 174 154 137 164 169 168 172 167 155 174 188 188 163 217 202 180 242 278 291 297 304 33 356 254 188 179 309 113 127 165 182 171 160 186 207 243 26 97 176 169 169 171 171 172 171 174 174 175 177 176 182 187 189
343 343 340 339 335 333 335 336 339 338 339 343 342 356 15 22 69 135 152 154 152 151 149 144 168 200 296 1 120 143 183 184 184 195 187 177 163 138 146 151 147 160 162 128 127 174 184 189 214 241 272 220 254 300 189 211 158 76 261 179 68 289 128 131 161 193 174 148 187 214 250 28 43 167 166 168 176 175 175 174 176 178 177 179 179 184 189 190
344 343 340 338 334 332 333 336 339 337 340 347 4 51 62 74 94 111 125 134 136 135 135 130 160 219 273 108 146 160 217 196 129 183 183 184 177 143 135 133 135 144 152 134 99 133 157 181 208 201 248 217 242 202 192 199 176 144 196 125 68 303 301 137 153 185 179 163 189 212 240 263 69 145 165 172 180 178 181 179 178 181 181 182 183 185 189 190
343 341 338 336 334 332 333 337 339 337 341 354 75 85 83 90 99 111 120 124 122 120 123 129 156 212 214 210 213 265 297 297 59 151 171 172 162 145 133 128 140 136 138 142 127 141 157 180 204 185 189 198 194 201 193 183 162 132 137 138 118 101 43 87 109 165 183 191 195 200 227 236 148 135 165 181 186 186 187 183 181 184 184 185 186 188 190 192
342 339 337 336 334 334 335 338 339 336 342 29 122 99 91 98 101 117 122 125 144 176 131 151 182 250 215 210 289 306 309 302 293 151 154 152 149 138 118 124 135 137 145 148 153 165 164 160 183 200 194 183 185 203 186 107 103 99 95 98 85 73 72 317 5 171 187 198 209 206 226 239 202 161 174 183 189 194 192 186 185 186 187 188 190 192 192 194
342 339 337 337 335 335 336 339 339 335 346 86 151 122 87 108 120 146 135 167 224 273 330 177 188 265 293 280 309 325 330 291 243 147 154 155 148 125 104 128 133 142 157 148 152 167 176 172 184 194 172 170 188 198 163 105 104 97 106 97 56 331 12 336 337 189 193 205 220 219 234 248 226 185 183 182 186 195 196 193 191 189 189 191 193 195 195 197
342 339 338 338 335 336 338 339 337 334 3 87 164 160 68 145 57 327 318 264 236 258 261 239 211 258 276 276 296 339 22 72 59 112 150 158 154 136 122 164 149 150 159 139 132 139 189 191 181 170 157 165 177 159 136 123 135 133 158 133 50 253 352 13 346 358 197 213 224 215 239 252 241 211 185 179 187 197 200 199 196 192 192 192 195 197 197 197
342 341 339 338 335 337 339 336 336 348 48 84 121 120 111 6 322 256 248 300 272 256 249 250 246 263 268 263 260 231 123 102 84 103 141 155 170 163 157 185 163 147 146 146 134 144 190 195 161 155 155 132 84 120 150 133 146 155 186 227 197 236 309 35 13 27 178 211 251 194 234 254 248 223 190 185 195 202 204 203 201 195 192 195 196 197 196 194
343 343 340 338 337 340 340 333 347 85 81 91 99 98 82 344 325 201 189 296 295 285 238 234 207 242 278 268 215 177 151 136 153 152 154 160 177 184 162 168 153 134 152 173 163 160 181 181 165 161 149 148 124 133 156 135 162 187 211 231 207 170 255 159 52 44 164 223 296 177 246 264 254 224 200 201 204 207 207 206 205 197 196 198 196 196 196 194
346 345 342 341 343 345 342 346 99 87 92 108 94 59 12 348 2 173 181 318 295 291 259 253 236 219 299 28 148 168 156 95 157 147 164 167 152 155 165 149 142 142 155 178 170 163 149 124 151 160 163 180 172 150 177 201 207 206 223 239 229 199 240 237 36 14 222 231 259 245 266 271 254 228 213 207 208 212 208 203 204 201 200 199 196 198 198 197
348 348 347 347 352 354 356 88 84 56 105 123 80 26 7 349 261 175 201 294 146 330 232 198 271 189 262 19 148 225 158 68 0 42 119 165 141 150 159 127 158 159 146 147 160 172 154 123 142 155 171 189 191 185 200 216 225 227 218 224 224 213 228 235 338 322 263 189 166 261 264 148 86 246 220 193 200 213 205 199 205 202 198 198 198 199 199 199
350 351 352 354 359 11 67 108 43 46 139 122 21 2 0 339 272 180 222 285 100 2 317 123 300 132 55 10 87 262 152 96 348 25 45 18 21 136 148 150 227 147 150 145 151 174 137 135 155 160 167 177 197 213 199 200 225 240 206 202 204 205 217 227 238 272 271 97 82 279 272 289 63 345 242 195 199 209 206 205 210 204 198 199 200 200 199 201
350 350 353 360 8 24 80 129 10 75 154 41 349 350 350 334 213 159 212 128 96 349 304 32 319 51 41 22 15 262 148 108 53 54 34 7 1 247 167 168 171 121 145 157 150 174 148 145 157 156 161 171 201 217 187 191 217 219 153 174 187 197 207 209 213 228 298 347 229 225 254 287 308 29 8 243 213 214 214 217 218 213 208 205 204 202 200 201
351 347 348 0 13 24 50 117 32 124 89 355 341 345 345 338 147 156 252 108 77 318 310 25 305 353 0 38 35 43 65 21 120 45 3 10 32 289 183 141 160 120 125 196 171 148 142 158 168 166 171 185 209 214 174 185 216 218 153 162 174 190 194 184 192 186 57 287 231 151 188 253 290 38 26 15 289 285 269 252 236 227 222 214 209 206 203 202
350 343 342 351 7 20 25 26 92 112 0 350 341 341 342 26 144 229 250 98 38 316 60 3 336 6 345 59 36 31 39 26 37 6 341 19 30 22 125 67 126 114 79 262 145 111 66 99 154 145 155 204 228 305 176 187 209 170 152 152 133 139 149 156 189 145 119 242 227 157 188 237 18 37 25 29 18 354 335 308 260 234 228 225 219 214 208 205
350 346 347 350 360 8 7 16 62 25 345 339 336 337 346 126 178 252 121 78 7 332 281 317 307 339 42 95 49 24 36 37 11 5 17 32 24 31 69 113 118 109 90 55 73 86 75 65 92 83 42 300 269 328 201 196 185 119 149 151 115 112 120 117 92 119 157 221 227 182 201 227 281 49 30 27 11 352 342 342 323 263 234 227 224 221 215 211
356 0 4 4 1 357 356 356 346 339 332 328 333 336 106 133 271 131 82 72 347 7 6 352 5 29 72 94 68 19 39 40 10 13 37 25 25 34 27 314 41 86 129 92 77 77 74 75 29 46 20 344 271 150 78 196 195 151 162 159 143 128 133 132 102 158 202 199 219 212 199 213 224 54 29 17 9 1 356 351 345 331 284 241 225 220 217 215
5 14 18 18 14 358 341 323 315 315 317 321 335 346 180 144 42 64 36 343 347 2 0 21 18 60 87 83 62 31 47 49 20 33 48 34 45 48 34 20 352 200 154 114 131 106 82 66 8 327 41 8 344 177 123 119 184 202 190 176 176 154 158 180 162 180 205 174 78 219 197 190 106 68 30 21 16 7 6 359 349 344 335 307 255 226 214 211
10 19 22 22 19 2 342 327 315 309 313 317 347 108 177 89 58 24 337 351 29 0 4 56 44 69 91 85 67 42 53 47 8 28 44 36 61 70 56 38 9 260 144 79 158 127 119 114 15 1 15 3 356 192 150 125 164 185 184 183 187 173 174 185 166 152 198 177 114 215 208 174 119 78 21 30 26 9 9 9 2 356 348 339 319 254 219 212
14 25 22 18 12 0 349 338 328 320 323 330 156 117 76 75 43 325 341 1 355 356 10 43 72 64 65 69 62 24 56 52 23 33 44 35 51 42 27 27 17 4 39 68 126 77 143 139 26 8 347 352 9 24 343 333 161 160 176 210 200 188 186 186 177 171 172 149 105 160 205 177 138 105 26 35 31 20 19 16 16 15 5 358 357 335 239 222
356 12 14 11 3 359 356 350 345 349 329 151 94 64 65 69 336 306 5 344 303 355 12 5 53 68 66 57 40 23 41 56 29 38 49 52 52 26 1 5 8 5 333 97 87 357 72 93 1 338 299 335 4 6 337 296 186 115 54 239 213 221 243 145 163 165 153 142 121 166 172 59 126 113 43 28 25 25 22 20 22 19 13 12 14 8 342 279
311 318 356 6 360 357 359 1 0 350 278 165 72 59 62 70 333 308 340 332 319 322 321 22 38 57 78 57 37 30 32 51 25 36 53 56 54 29 6 354 1 4 0 36 82 33 116 100 356 332 246 53 359 345 349 2 242 157 168 188 81 350 320 95 128 58 149 177 163 155 116 69 140 128 26 16 21 25 23 22 23 20 17 18 15 7 358 343
332 319 348 5 360 356 358 9 9 328 279 72 76 69 80 76 351 288 300 311 303 299 282 72 31 19 77 73 31 8 14 47 26 30 53 41 43 15 353 347 3 5 2 353 56 22 42 126 50 358 0 9 347 313 163 34 5 218 174 127 91 337 298 6 155 147 182 190 151 77 96 68 117 197 11 10 16 22 21 21 23 24 23 21 14 5 357 348
342 343 1 2 0 1 12 27 26 296 84 72 81 90 93 29 11 329 316 310 262 55 59 80 40 353 49 101 60 3 347 29 26 45 69 38 48 9 343 344 5 5 357 315 229 49 336 134 117 24 338 331 348 342 173 27 20 37 87 89 88 198 181 192 184 170 185 186 135 102 110 62 37 9 6 8 11 13 15 16 20 23 23 20 15 7 0 353
352 6 5 358 3 20 45 49 48 47 74 72 78 89 67 27 20 358 344 338 283 33 57 66 46 47 51 83 103 33 24 59 62 69 66 27 55 29 2 345 346 360 357 347 51 108 314 42 134 30 339 306 0 35 9 352 12 61 107 80 355 330 207 185 169 186 198 180 147 140 138 72 41 13 7 11 8 6 10 12 16 20 19 19 17 11 7 1
6 86 0 355 3 44 58 55 53 39 64 71 54 66 45 19 13 2 6 27 24 15 62 68 36 72 75 68 86 58 41 54 59 69 56 29 85 71 26 359 328 344 344 357 50 44 304 22 106 15 0 316 49 43 28 13 13 23 69 45 27 356 294 152 72 17 287 195 164 158 142 82 49 15 9 13 10 10 12 10 11 17 19 22 21 16 13 10
6 92 355 350 357 53 58 50 46 34 67 72 47 52 38 34 10 1 8 26 43 44 61 76 63 75 97 77 67 60 55 59 49 61 72 37 47 72 35 14 314 320 324 353 33 23 351 21 75 35 37 78 91 55 14 21 25 34 48 32 9 358 223 189 170 122 11 324 179 157 139 96 52 18 15 17 15 15 13 8 10 15 16 18 23 23 19 16
26 81 347 348 2 66 65 48 19 29 68 66 44 15 16 36 16 359 1 17 46 55 50 62 59 55 74 73 63 63 74 68 36 48 87 60 43 34 1 336 283 299 349 47 20 11 11 56 67 72 59 78 116 117 355 358 14 41 48 32 6 5 337 251 189 152 119 73 73 106 118 111 70 28 24 22 16 17 15 11 12 13 11 12 18 25 25 20
36 69 354 356 3 88 73 55 32 48 61 62 51 25 21 33 15 9 13 17 30 49 43 42 40 43 54 56 76 91 73 63 39 48 101 83 52 24 329 324 316 344 30 85 24 4 19 69 67 88 85 138 194 198 343 359 343 50 41 25 15 15 350 331 15 98 129 113 139 145 129 125 89 38 29 26 20 22 22 16 14 12 10 10 11 19 25 23
23 213 345 7 17 114 92 66 95 80 66 55 64 49 37 45 29 23 28 24 21 41 57 46 28 40 56 51 68 80 46 67 68 47 82 94 54 8 343 352 6 25 33 22 317 357 26 19 88 125 132 171 202 200 187 85 37 51 33 12 15 21 9 339 1 333 123 67 348 183 133 118 92 48 34 33 25 23 23 17 16 15 12 9 7 11 19 22
25 180 267 7 28 61 82 69 111 104 95 74 65 45 36 70 49 25 39 42 30 31 64 57 21 40 63 65 70 61 29 46 95 97 82 97 80 6 359 2 9 29 48 45 18 346 75 43 2 180 176 190 189 158 163 130 41 59 22 7 14 18 9 356 227 292 128 81 352 41 103 104 90 52 37 35 24 19 19 13 14 16 11 10 9 10 17 22
17 45 298 356 24 48 65 28 43 92 106 88 69 37 27 73 62 12 35 47 32 33 56 58 20 41 62 68 76 61 38 47 80 117 123 97 91 38 345 352 11 20 38 44 30 37 116 69 24 32 61 96 100 77 41 345 43 74 21 9 10 10 5 356 257 73 83 106 81 61 36 32 56 40 30 31 24 15 10 8 12 12 7 10 11 11 18 23
98 51 0 348 17 32 59 39 12 40 95 62 73 37 16 47 58 20 34 46 31 32 54 47 24 39 68 79 91 71 48 60 74 84 90 70 89 88 324 358 16 4 11 29 11 4 117 87 39 55 64 68 77 75 59 38 59 43 9 4 1 1 4 7 42 60 30 221 125 84 359 349 27 26 20 26 25 18 8 4 7 6 5 10 13 15 19 21
57 114 308 308 8 10 41 21 4 36 69 49 67 70 27 51 66 46 43 67 46 23 47 56 32 35 56 84 108 93 67 74 71 63 76 74 108 134 25 40 21 358 9 37 16 15 96 87 56 73 83 84 72 65 56 46 50 20 337 345 348 351 1 10 37 55 319 298 59 59 43 32 18 9 15 22 22 19 11 360 358 5 10 10 13 18 20 18
57 107 55 335 62 68 47 356 347 34 55 42 49 60 43 62 75 62 17 43 53 18 23 80 51 33 53 70 90 94 80 94 97 94 94 70 73 114 64 67 36 9 19 49 42 15 81 88 85 97 100 90 60 45 37 17 6 336 320 328 328 337 349 340 13 71 185 193 30 53 105 87 21 350 9 19 14 16 15 7 6 11 13 13 13 16 17 15
74 103 354 68 82 46 25 20 359 35 43 25 44 54 31 59 80 91 15 23 66 32 29 99 96 64 67 77 85 89 66 79 98 103 153 141 92 123 85 55 52 21 18 38 42 358 324 94 92 124 123 103 45 19 9 352 341 324 326 353 5 160 141 236 155 107 154 154 60 84 129 112 36 350 359 6 3 8 16 20 17 12 10 13 15 13 12 11
77 56 316 108 77 0 357 42 22 50 48 26 46 63 65 74 73 89 66 34 48 76 102 120 112 81 72 80 88 97 107 101 84 86 156 160 54 69 76 20 197 33 25 24 14 4 77 115 119 172 156 138 121 346 334 331 322 294 316 38 56 123 135 117 105 93 20 141 95 184 172 131 65 359 3 4 356 2 13 19 19 13 9 10 13 12 9 5
91 72 353 92 94 0 354 60 36 89 70 20 21 25 52 76 23 26 92 63 31 44 93 133 123 90 88 92 90 103 153 161 73 60 177 177 18 107 88 98 186 16 23 38 22 17 106 130 134 188 180 141 146 288 308 303 268 226 141 58 32 56 78 57 136 112 83 280 272 268 146 108 94 29 19 12 354 355 7 13 13 14 12 9 8 8 6 3
Height
806 805 804 802 800 798 796 795 794 792 792 791 789 789 787 787 785 785 784 783 782 781 779 778 776 776 775 775 774 773 773 772 772 773 770 762 760 763 764 767 768 770 773 775 778 780 784 786 788 789 790 790 792 792 793 791 790 796 803 808 809 807 803 796 795 796 796 798 797 796 794 797 801 799 794 794 798 801 803 802 801 801 800 802 805 808 812 816
806 805 803 801 799 798 796 795 794 792 791 790 789 788 787 785 784 783 783 782 781 780 779 777 776 775 775 774 774 773 772 771 771 769 763 758 759 761 763 766 768 769 771 773 776 777 781 785 787 788 790 793 793 793 795 792 791 798 802 807 807 802 796 789 790 789 790 794 795 795 794 795 798 798 794 799 806 803 807 808 804 807 807 807 807 810 815 816
805 804 802 800 799 797 796 794 793 792 790 789 788 787 786 784 783 782 781 781 780 779 778 777 776 775 774 774 773 772 771 770 768 763 758 756 758 759 762 765 766 768 770 772 775 776 779 782 784 787 790 795 794 794 798 794 793 796 799 806 803 796 792 786 786 786 786 789 793 796 793 795 795 793 794 800 805 805 808 809 807 811 811 810 810 811 815 817
805 803 801 800 798 797 795 794 793 791 790 789 787 786 785 783 782 781 780 779 779 778 777 776 775 774 774 774 773 772 771 770 765 758 756 756 757 758 761 764 766 768 771 773 776 778 779 782 784 786 791 796 795 795 798 795 794 796 797 802 795 791 792 786 784 785 783 785 791 795 794 797 794 792 795 798 805 808 805 802 803 808 810 810 810 811 814 817
804 802 800 799 797 796 794 793 792 790 789 787 786 785 784 782 781 780 779 778 777 777 777 776 775 774 774 773 773 771 771 772 763 756 757 756 757 759 761 763 766 768 771 775 777 779 781 783 784 788 792 796 798 798 799 793 792 798 795 793 790 790 793 786 783 784 783 785 790 794 795 795 792 793 796 797 804 805 799 797 798 801 804 806 808 810 813 816
803 801 799 798 796 795 793 792 791 789 788 786 785 783 782 781 779 778 777 777 776 776 776 775 774 774 774 773 773 771 772 771 761 756 757 756 758 760 762 764 766 769 772 775 777 779 781 783 786 791 793 796 799 799 797 791 791 799 794 788 787 787 790 785 782 784 783 787 792 793 792 791 794 797 795 796 800 796 792 793 795 798 801 804 806 809 812 815
802 800 798 797 795 794 792 791 789 788 786 785 783 782 780 779 778 777 776 775 775 774 775 774 774 774 773 773 773 771 771 766 758 758 758 757 760 761 763 765 767 770 772 774 776 778 780 784 787 789 793 796 798 796 794 791 791 798 795 788 786 784 785 783 781 783 783 788 789 789 791 793 798 799 796 797 796 792 790 792 795 798 801 805 808 810 812 814
801 799 797 796 794 792 791 789 788 786 785 783 782 780 779 777 776 775 774 774 773 773 773 773 774 774 773 773 772 771 770 763 758 759 759 759 761 762 765 767 769 771 772 774 775 777 779 784 786 787 793 795 794 794 793 793 793 796 795 788 784 783 781 779 780 783 784 787 786 788 794 795 795 796 798 799 795 791 791 793 796 800 803 806 808 811 813 814
800 798 796 794 793 791 789 788 786 785 783 781 780 778 776 775 774 773 773 773 772 772 772 772 773 773 774 773 772 770 766 760 758 759 760 760 762 764 766 767 769 771 772 775 775 777 780 784 785 784 790 791 790 792 791 795 796 792 790 787 785 783 779 779 781 783 785 786 786 792 798 797 793 795 800 798 794 792 791 795 798 800 804 807 808 810 812 814
799 797 795 793 791 790 788 786 785 783 781 779 778 776 774 773 772 771 771 771 771 771 771 772 773 773 774 773 772 769 762 758 759 759 760 761 762 765 767 767 769 770 772 775 776 777 779 781 782 780 785 788 789 790 790 793 791 787 787 786 784 783 780 780 782 783 785 787 787 793 800 798 794 798 803 797 792 792 794 798 799 801 805 806 808 810 812 814
798 796 794 792 790 789 786 785 783 781 780 778 776 774 772 771 769 769 769 769 769 770 770 771 772 773 774 774 771 766 759 758 759 760 761 762 763 765 767 768 769 770 772 775 777 777 778 779 779 780 785 787 788 790 788 787 786 784 785 786 784 784 784 783 784 785 787 791 789 790 799 800 798 802 802 794 792 793 796 800 801 803 806 806 809 810 813 815
797 795 793 791 789 787 785 784 782 780 778 776 774 772 770 768 767 767 767 767 768 769 770 771 772 772 773 774 770 762 758 758 759 760 762 762 764 765 767 768 769 771 772 774 777 777 779 779 779 783 787 786 789 792 787 782 783 783 784 789 787 784 789 787 786 786 787 793 788 789 804 805 802 803 796 791 792 793 797 801 802 804 806 807 809 810 813 814
796 794 792 790 788 785 784 782 780 778 776 774 772 769 767 765 764 764 765 766 767 768 769 770 771 771 774 772 763 759 758 759 759 761 763 763 765 767 768 770 771 772 773 774 776 777 779 780 780 783 783 784 790 788 783 780 782 784 784 789 790 789 793 790 788 788 789 793 786 791 810 807 799 798 792 789 792 795 800 802 803 805 806 807 809 811 813 814
795 792 791 788 786 784 782 781 779 776 774 772 770 767 765 763 763 763 764 765 766 768 769 770 771 772 773 768 759 758 759 759 760 761 762 764 765 768 769 770 772 774 775 776 777 778 779 780 780 782 782 784 786 783 783 784 784 787 787 789 794 796 797 792 788 790 794 794 785 794 811 804 795 795 791 789 790 795 801 802 803 804 805 807 809 811 813 813
793 791 789 787 785 782 781 779 777 775 773 771 768 766 764 762 762 762 763 765 766 768 768 770 771 771 772 766 758 759 759 759 760 761 762 763 764 767 769 771 773 774 776 777 778 779 780 781 782 785 785 782 783 787 791 790 787 789 794 796 796 797 798 795 791 790 795 796 788 797 810 801 794 793 789 789 790 794 800 802 803 804 805 807 809 811 812 813
791 790 787 785 783 781 779 777 775 774 771 770 768 766 764 762 762 762 764 766 768 769 768 770 771 771 772 765 759 759 759 759 759 760 762 763 764 766 769 771 773 775 777 778 778 779 781 782 783 785 786 785 788 793 794 795 794 792 795 800 799 796 798 799 794 788 790 795 794 798 805 802 797 792 788 790 791 795 800 802 802 803 805 806 808 810 811 813
790 788 785 783 781 779 777 776 774 772 770 769 768 766 765 764 763 763 765 768 769 770 769 770 770 771 768 761 760 761 759 759 759 759 761 763 764 765 768 772 774 776 777 778 779 780 782 785 786 787 788 790 792 793 800 807 804 798 795 798 801 799 799 800 798 791 787 794 798 799 802 801 798 794 792 791 791 795 799 801 802 803 804 805 807 809 810 812
788 786 783 781 779 777 775 774 773 770 769 769 768 767 766 766 766 765 767 769 770 770 771 770 770 773 770 761 761 761 758 758 759 759 761 763 765 765 767 770 772 775 778 780 781 782 785 787 788 792 793 794 795 795 804 808 802 800 799 799 801 800 800 800 799 793 790 794 798 801 803 799 796 795 795 793 792 796 798 799 801 802 804 805 806 808 809 811
786 784 781 779 777 775 774 773 771 770 768 768 768 768 767 767 768 767 767 769 770 769 770 769 767 771 770 762 759 758 757 758 758 759 761 762 765 766 767 769 771 775 780 783 785 784 786 789 793 798 798 796 796 794 797 798 795 798 799 799 802 801 799 798 795 789 789 797 799 800 801 797 796 796 796 794 793 796 798 798 801 802 803 804 805 806 807 809
785 782 779 777 775 774 772 771 770 769 767 768 768 767 768 769 769 768 768 768 767 765 764 764 763 765 764 760 758 757 757 757 757 758 760 761 763 766 769 771 773 777 780 783 786 784 783 793 798 797 796 793 793 792 792 793 793 796 798 800 802 802 799 795 794 787 785 796 799 795 797 796 794 795 793 793 794 797 799 799 801 801 802 803 804 805 805 806
783 780 778 775 774 772 771 770 769 768 767 767 767 768 769 770 771 770 768 765 763 762 762 761 761 762 760 759 758 757 758 758 757 757 760 761 761 767 773 774 777 782 782 781 784 783 785 794 796 791 790 790 790 792 793 794 795 797 798 801 802 801 798 794 794 790 785 794 797 793 798 797 792 793 791 792 796 797 796 796 798 799 800 801 802 803 803 804
781 778 776 774 772 770 769 768 767 767 767 766 767 767 768 769 769 769 768 768 764 761 762 760 760 761 757 757 757 757 760 762 761 759 760 761 762 768 774 775 778 783 784 782 784 790 794 795 792 788 788 789 792 794 794 796 797 797 798 801 802 799 798 796 793 790 787 794 797 795 799 796 789 789 790 790 792 791 788 789 792 794 798 799 800 801 802 804
780 777 774 772 770 769 768 767 767 767 766 767 767 767 768 768 767 767 768 771 767 761 761 760 760 760 757 757 756 757 761 763 764 762 759 762 765 767 771 775 779 782 784 784 785 793 799 793 786 786 788 791 795 795 795 796 796 798 798 801 802 799 800 800 796 794 791 792 794 796 798 793 788 789 789 787 786 785 785 785 787 790 793 794 795 798 800 803
778 775 773 770 768 768 766 766 766 766 767 767 767 767 768 767 767 767 767 771 771 763 759 759 758 758 758 757 756 758 761 761 762 762 758 761 766 767 769 774 778 782 784 783 783 789 792 787 783 786 790 791 795 797 796 797 798 798 798 799 800 799 799 799 798 796 792 790 792 797 803 797 791 794 792 785 784 785 784 786 788 788 788 790 792 795 796 798
777 774 772 769 768 767 765 766 766 767 767 766 767 767 767 767 766 766 768 773 774 765 759 759 758 758 756 756 757 757 759 761 761 760 758 759 764 768 771 773 776 783 787 785 785 787 787 783 782 789 792 791 795 796 795 795 798 799 797 795 795 796 797 797 798 798 798 800 794 797 812 808 794 794 793 787 788 787 785 786 788 787 787 789 792 792 793 794
776 773 771 769 768 766 766 766 766 767 767 766 767 767 766 767 766 766 770 776 777 768 762 761 760 759 756 757 757 756 763 767 761 758 759 760 760 763 772 774 774 782 786 783 784 785 785 784 783 787 791 793 795 795 794 793 799 802 794 789 791 794 795 797 799 801 804 806 797 795 810 813 798 792 790 787 790 789 786 786 785 785 787 787 788 789 790 792
775 772 770 769 767 766 766 766 767 767 766 767 767 766 766 765 765 766 771 781 784 773 766 764 761 759 757 758 756 759 771 771 761 760 760 761 760 760 770 776 775 779 780 781 789 788 783 785 787 787 789 793 794 794 792 790 797 800 791 787 792 792 795 797 798 802 803 802 800 795 801 813 808 795 790 789 792 792 791 791 788 786 786 785 785 786 787 788
774 772 770 769 768 767 766 766 767 766 766 767 765 766 766 764 766 767 775 792 790 771 765 764 758 757 757 757 758 762 770 767 766 768 761 760 763 761 769 775 775 778 777 781 792 789 782 785 788 787 789 791 790 788 786 787 793 792 786 788 790 790 794 794 795 802 802 803 808 802 799 812 812 797 791 793 796 800 797 794 792 789 786 785 785 784 784 784
773 771 769 769 768 767 767 767 766 765 766 766 765 766 765 763 767 769 779 794 785 768 766 763 758 759 759 760 763 766 766 767 772 772 763 763 765 763 771 776 774 778 778 778 784 785 783 784 783 784 789 789 786 785 783 785 788 785 785 788 788 791 794 794 798 801 804 812 814 804 799 809 814 807 802 802 805 808 802 793 789 787 785 785 784 783 782 782
772 770 769 768 767 766 767 766 765 765 765 764 765 765 763 766 770 777 791 793 781 770 767 763 763 765 763 765 771 772 771 773 774 771 768 770 768 766 772 775 773 777 779 778 782 785 783 781 780 784 789 788 785 786 784 783 784 782 786 790 792 796 795 798 800 799 812 822 811 800 798 802 815 819 813 812 813 810 804 797 790 785 782 782 782 782 782 782
771 770 769 767 767 766 766 765 764 765 764 764 765 763 764 770 773 787 798 787 778 774 769 768 770 768 768 772 778 779 777 779 779 776 778 778 775 776 778 780 780 780 783 784 785 786 784 784 785 786 787 786 785 786 786 784 783 784 788 791 799 804 802 806 809 808 823 827 809 802 799 799 818 827 817 813 811 806 804 803 797 791 784 779 778 778 779 780
771 770 769 767 767 766 766 765 764 764 764 763 764 763 768 776 783 795 795 782 781 782 775 776 776 774 774 776 784 786 782 785 785 785 788 788 788 792 794 798 798 793 794 795 792 789 789 790 789 787 786 786 787 786 786 786 785 788 791 794 806 815 817 822 822 820 824 819 808 806 801 805 823 828 817 813 810 805 804 801 798 795 789 782 777 774 774 776
772 771 769 768 767 766 765 764 763 763 763 762 764 764 770 784 796 799 792 785 787 784 777 779 778 776 774 777 789 790 787 792 791 790 793 792 794 800 800 801 802 799 798 799 796 794 795 794 790 790 788 786 788 787 788 790 788 790 792 795 806 817 827 834 832 829 825 814 807 804 803 813 825 823 815 812 809 805 801 798 796 794 790 786 778 771 770 771
772 771 770 768 767 766 764 763 762 762 762 761 764 766 776 795 802 796 791 789 786 781 780 782 780 777 778 784 793 791 791 798 796 793 795 794 799 805 803 800 800 801 799 799 802 802 805 804 798 797 795 790 791 791 792 793 790 789 788 789 795 801 812 824 824 823 821 813 810 810 809 815 822 823 814 807 804 802 799 796 793 791 788 784 778 772 771 770
772 771 769 767 766 765 762 762 761 761 761 760 764 774 790 804 804 796 794 790 785 783 783 782 780 782 787 791 793 790 790 798 800 798 800 802 808 813 812 808 804 804 801 802 807 807 810 810 800 796 797 795 795 794 792 794 793 791 789 790 794 792 796 807 811 808 805 808 814 814 811 809 812 814 807 802 803 801 798 795 791 791 788 784 783 780 776 774
771 770 769 767 766 764 762 762 760 761 761 759 769 789 799 802 800 797 793 787 786 787 784 783 784 788 794 795 796 793 789 795 802 803 806 811 813 814 815 813 808 808 805 805 810 810 810 810 801 797 796 794 795 795 792 794 795 792 791 794 796 792 792 801 810 808 803 809 815 812 812 814 814 812 805 804 805 801 799 798 795 794 791 787 787 786 783 780
771 770 769 767 766 764 762 761 760 761 759 760 778 797 800 796 795 794 791 787 787 788 786 789 794 797 800 800 802 800 793 796 801 804 810 815 815 817 818 814 809 809 808 807 810 811 809 808 803 801 800 793 793 794 792 792 792 791 793 794 794 794 794 799 809 814 811 812 817 819 822 825 826 822 812 808 808 805 803 802 799 797 793 792 791 788 786 783
771 769 769 768 768 765 762 761 761 760 759 768 787 798 796 794 792 791 791 789 787 786 787 794 799 801 802 803 808 806 798 800 806 808 813 816 818 820 820 816 810 807 808 806 807 810 810 809 805 803 804 798 791 792 795 792 789 791 793 793 796 800 801 802 808 814 813 815 823 828 829 830 833 830 822 817 815 811 808 805 803 800 797 796 794 790 787 783
771 771 772 771 769 767 765 763 762 759 764 781 795 796 794 794 791 789 789 789 788 788 791 797 798 799 802 803 808 808 803 805 811 814 817 819 821 820 819 819 813 807 808 805 806 812 811 810 809 802 801 801 796 799 810 807 795 791 792 793 796 799 801 803 803 804 806 814 824 829 831 834 834 829 825 823 819 814 812 810 806 804 802 800 798 794 790 785
772 774 776 773 770 770 767 763 763 766 776 791 797 795 794 793 791 789 787 787 789 789 793 799 798 799 805 805 806 808 809 811 814 816 819 821 823 821 819 820 817 812 809 806 808 813 810 810 812 805 799 805 811 815 822 820 809 801 801 804 805 803 802 803 805 807 806 810 815 822 835 840 830 823 823 822 819 815 814 812 809 807 804 801 800 797 792 788
775 779 779 774 771 771 766 767 775 782 789 795 797 796 795 793 792 791 788 787 789 790 793 798 799 802 806 807 808 810 812 815 817 818 821 823 824 823 819 820 821 816 811 809 810 812 812 811 814 814 812 816 824 824 821 820 817 813 812 816 815 811 807 805 810 814 812 812 811 813 833 843 829 821 823 820 818 816 814 813 811 808 806 803 800 797 794 790
778 784 782 776 774 770 769 779 789 791 794 797 798 798 796 795 795 794 792 790 790 791 793 797 801 805 807 808 810 812 814 818 821 820 822 825 825 824 821 819 820 816 812 815 815 814 815 814 817 822 824 824 825 823 821 820 819 815 816 819 817 815 814 810 811 814 813 817 815 810 827 841 830 822 823 821 819 817 815 814 812 810 808 805 802 798 794 791
784 787 781 776 776 771 775 791 796 794 797 799 798 798 797 798 799 796 795 795 795 795 797 801 804 806 808 809 810 813 815 820 825 824 824 826 824 823 822 819 816 815 814 817 818 815 816 820 824 828 828 824 820 820 821 819 818 818 820 820 818 818 819 815 814 814 813 819 817 812 828 839 830 823 823 821 820 818 816 815 813 812 809 806 804 800 796 793
788 787 782 778 775 772 780 796 800 799 801 799 799 801 799 800 802 800 800 801 800 801 803 807 807 806 809 810 811 815 817 820 826 827 825 827 825 822 822 818 815 814 814 817 818 814 819 827 828 829 833 831 825 823 823 820 821 825 826 824 822 821 819 818 818 815 818 827 824 816 827 835 828 824 824 822 821 820 818 816 814 814 812 809 806 802 799 796
788 788 786 782 777 777 788 798 798 800 804 802 803 806 803 803 805 805 804 805 806 805 807 810 810 808 810 811 813 817 816 816 824 827 826 826 825 822 822 819 817 815 814 817 816 814 823 833 830 826 829 831 829 829 829 827 827 829 831 828 825 824 822 821 819 817 823 833 829 822 827 830 827 827 826 824 824 823 821 819 816 816 814 811 809 806 803 799
790 794 794 789 784 786 795 800 798 800 803 804 807 809 809 808 807 805 805 807 808 807 808 812 812 811 812 813 816 820 819 816 819 825 827 827 825 825 824 821 820 817 815 816 816 817 827 837 836 831 828 828 833 837 837 834 833 834 835 832 829 828 826 823 821 822 827 830 830 832 834 831 830 831 830 828 828 826 825 822 819 818 816 813 811 808 805 802
795 801 804 800 796 796 798 801 803 803 803 805 810 813 813 812 810 807 806 809 811 810 811 814 815 814 816 817 820 824 824 822 821 825 830 829 827 826 825 822 821 819 817 817 818 820 828 835 838 838 837 837 839 840 838 836 836 838 838 835 832 831 829 826 826 829 832 829 830 838 838 834 834 835 832 832 831 829 827 825 823 821 818 815 812 810 807 804
798 805 807 805 805 807 806 806 807 807 806 807 812 815 815 814 814 813 811 810 812 812 813 817 819 819 819 819 821 826 828 827 828 831 832 830 829 828 825 824 823 821 820 820 820 823 829 836 838 838 840 841 840 838 837 836 837 838 837 835 834 833 833 832 832 833 833 831 832 837 837 837 838 836 833 833 832 831 830 828 824 822 819 817 814 812 810 808
800 804 806 805 808 812 812 810 809 808 808 809 813 815 816 815 816 818 816 813 815 815 816 821 824 823 822 820 822 828 831 830 832 835 833 832 833 831 829 828 825 822 821 822 825 827 830 836 838 837 839 841 840 839 838 837 837 836 834 834 835 835 835 835 833 832 832 832 833 834 837 841 840 836 834 832 830 830 829 828 825 822 821 819 817 815 814 812
801 804 805 804 808 812 812 811 811 810 810 812 815 817 819 818 817 819 818 817 819 819 818 822 826 825 823 821 821 827 830 828 829 832 832 832 833 832 832 832 829 826 824 825 828 829 831 838 841 838 840 843 842 840 838 838 839 838 835 834 836 836 836 834 833 832 832 834 834 833 837 842 840 834 831 829 828 828 828 829 828 825 823 821 820 819 817 815
803 806 804 804 810 814 813 814 815 814 814 815 817 818 819 819 819 819 819 819 820 820 818 821 825 824 823 824 824 827 828 826 826 827 827 829 830 830 830 831 830 829 828 830 831 829 831 839 842 839 841 844 844 843 841 838 840 840 838 837 836 835 835 834 833 833 833 835 836 834 835 839 838 834 831 829 828 828 829 830 830 828 825 823 823 822 820 818
804 806 805 804 811 817 817 816 817 816 817 819 819 820 819 819 820 820 820 821 820 819 820 821 822 823 825 827 827 826 825 825 825 825 825 826 827 828 828 828 829 830 831 832 834 834 833 836 840 839 840 843 845 845 843 840 839 838 836 837 838 835 835 834 833 834 834 834 835 833 833 835 837 835 834 833 830 829 830 831 831 830 828 825 824 823 822 821